Location: Cluny
(50.9333°N, 112.8167°W)
Time: 15:07:55
(UTC-06:00)

Hamsat - Visible Passes

Search period start: 25 October 2014 00:00
Search period end: 03 November 2014 23:00
Orbit: 592 x 629 km, 97.6° (Epoch: 24 October)

Date Brightness Start Highest point End Pass type
(mag) Time Alt. Az. Time Alt. Az. Time Alt. Az.
25 Oct ? 07:32:51 10° NNE 07:37:04 82° ESE 07:41:17 10° SSW visible
26 Oct ? 06:12:41 10° NE 06:14:55 14° E 06:17:09 10° ESE visible
26 Oct ? 18:45:16 10° S 18:49:22 54° W 18:53:30 10° NNW visible
27 Oct ? 06:26:22 10° NE 06:29:23 19° E 06:32:25 10° SE visible
27 Oct ? 18:59:48 10° SSW 19:03:44 39° W 19:07:41 10° NNW visible
28 Oct ? 06:40:17 10° NE 06:43:49 26° E 06:47:21 10° SSE visible
28 Oct ? 19:14:29 10° SSW 19:18:07 28° W 19:21:46 10° NW visible
29 Oct ? 06:54:20 10° NNE 06:58:13 35° E 07:02:05 10° SSE visible
29 Oct ? 19:29:20 10° SW 19:32:32 21° W 19:35:44 10° NW visible
30 Oct ? 07:08:28 10° NNE 07:12:34 48° E 07:16:40 10° S visible
30 Oct ? 19:44:26 10° SW 19:46:58 16° W 19:49:30 10° NW visible
31 Oct ? 07:22:40 10° NNE 07:26:53 67° ESE 07:31:06 10° S visible
31 Oct ? 20:00:05 10° WSW 20:01:25 11° W 20:02:45 10° WNW visible
01 Nov ? 06:03:09 10° ENE 06:04:35 11° E 06:06:01 10° ESE visible
01 Nov ? 07:36:56 10° NNE 07:41:10 89° WNW 07:45:26 10° SSW visible
01 Nov ? 18:34:57 10° S 18:39:06 67° WSW 18:43:17 10° NNW visible
02 Nov ? 05:16:26 10° NE 05:19:02 16° E 05:21:38 10° SE visible
02 Nov ? 06:51:13 10° N 06:55:25 65° WNW 06:59:38 10° SSW visible
02 Nov ? 17:49:22 10° S 17:53:24 48° W 17:57:28 10° NNW visible
03 Nov ? 05:30:10 10° NE 05:33:26 21° E 05:36:42 10° SE visible
03 Nov ? 18:03:54 10° SSW 18:07:43 34° W 18:11:34 10° NNW visible
